Time,TemperatureF,DewpointF,PressureIn,WindDirection,WindDirectionDegrees,WindSpeedMPH,WindSpeedGustMPH,Humidity,HourlyPrecipIn,Conditions,Clouds,dailyrainin,SoftwareType,DateUTC
2013-04-22 00:00:00,45.4,38.3,30.46,West,270,0.0,0.0,76,0.00,,,0.00,Wunderground v.1.15,2013-04-22 04:00:00,
2013-04-22 00:02:00,45.3,38.2,30.46,West,270,0.0,0.0,76,0.00,,,0.00,Wunderground v.1.15,2013-04-22 04:02:00,
2013-04-22 00:04:00,45.2,38.4,30.46,West,270,0.0,1.0,77,0.00,,,0.00,Wunderground v.1.15,2013-04-22 04:04:00,
2013-04-22 00:06:00,45.2,38.4,30.46,West,270,0.0,1.0,77,0.00,,,0.00,Wunderground v.1.15,2013-04-22 04:06:00,
2013-04-22 00:10:00,45.0,37.9,30.46,West,270,0.0,0.0,76,0.00,,,0.00,Wunderground v.1.15,2013-04-22 04:10:00,
2013-04-22 00:16:00,44.7,37.9,30.47,West,270,0.0,0.0,77,0.00,,,0.00,Wunderground v.1.15,2013-04-22 04:16:00,
2013-04-22 00:20:00,44.6,37.5,30.47,West,270,0.0,0.0,76,0.00,,,0.00,Wunderground v.1.15,2013-04-22 04:20:00,
2013-04-22 00:26:00,44.4,37.3,30.47,West,270,0.0,0.0,76,0.00,,,0.00,Wunderground v.1.15,2013-04-22 04:26:00,
2013-04-22 00:32:00,44.3,37.5,30.47,West,270,0.0,0.0,77,0.00,,,0.00,Wunderground v.1.15,2013-04-22 04:32:00,
2013-04-22 00:38:00,44.1,37.3,30.47,West,270,0.0,0.0,77,0.00,,,0.00,Wunderground v.1.15,2013-04-22 04:38:00,
2013-04-22 00:44:00,43.9,37.5,30.48,NW,318,0.0,0.0,78,0.00,,,0.00,Wunderground v.1.15,2013-04-22 04:44:00,
2013-04-22 00:50:00,43.7,37.3,30.48,NW,318,0.0,0.0,78,0.00,,,0.00,Wunderground v.1.15,2013-04-22 04:50:00,
2013-04-22 00:56:00,43.5,37.1,30.48,NW,318,0.0,0.0,78,0.00,,,0.00,Wunderground v.1.15,2013-04-22 04:56:00,
2013-04-22 01:02:00,43.2,37.1,30.48,NW,318,0.0,0.0,79,0.00,,,0.00,Wunderground v.1.15,2013-04-22 05:02:00,
2013-04-22 01:08:00,43.0,36.6,30.48,NW,318,0.0,0.0,78,0.00,,,0.00,Wunderground v.1.15,2013-04-22 05:08:00,
2013-04-22 01:26:00,42.4,37.0,30.47,NW,318,0.0,0.0,81,0.00,,,0.00,Wunderground v.1.15,2013-04-22 05:26:00,
2013-04-22 01:32:00,42.2,36.5,30.47,NW,318,0.0,0.0,80,0.00,,,0.00,Wunderground v.1.15,2013-04-22 05:32:00,
2013-04-22 01:38:00,42.0,36.3,30.47,NW,318,0.0,0.0,80,0.00,,,0.00,Wunderground v.1.15,2013-04-22 05:38:00,
2013-04-22 01:44:00,41.7,36.3,30.46,NW,318,0.0,0.0,81,0.00,,,0.00,Wunderground v.1.15,2013-04-22 05:44:00,
2013-04-22 01:50:00,41.5,36.1,30.46,NW,318,0.0,0.0,81,0.00,,,0.00,Wunderground v.1.15,2013-04-22 05:50:00,
2013-04-22 01:56:00,41.4,36.3,30.46,NW,318,0.0,0.0,82,0.00,,,0.00,Wunderground v.1.15,2013-04-22 05:56:00,
2013-04-22 02:02:00,41.1,36.0,30.46,NW,318,0.0,0.0,82,0.00,,,0.00,Wunderground v.1.15,2013-04-22 06:02:00,
2013-04-22 02:08:00,41.0,35.9,30.46,NW,318,0.0,0.0,82,0.00,,,0.00,Wunderground v.1.15,2013-04-22 06:08:00,
2013-04-22 02:14:00,40.8,36.0,30.46,NW,318,0.0,0.0,83,0.00,,,0.00,Wunderground v.1.15,2013-04-22 06:14:00,
2013-04-22 02:20:00,40.6,35.5,30.45,NW,318,0.0,0.0,82,0.00,,,0.00,Wunderground v.1.15,2013-04-22 06:20:00,
2013-04-22 02:26:00,40.4,35.6,30.45,NW,318,0.0,0.0,83,0.00,,,0.00,Wunderground v.1.15,2013-04-22 06:26:00,
2013-04-22 02:32:00,40.3,35.8,30.45,NW,318,0.0,0.0,84,0.00,,,0.00,Wunderground v.1.15,2013-04-22 06:32:00,
2013-04-22 02:38:00,40.1,35.7,30.44,NW,318,0.0,1.0,84,0.00,,,0.00,Wunderground v.1.15,2013-04-22 06:38:00,
2013-04-22 02:44:00,40.0,35.9,30.44,NNW,329,0.0,1.0,85,0.00,,,0.00,Wunderground v.1.15,2013-04-22 06:44:00,
2013-04-22 02:50:00,39.8,35.7,30.44,NNW,331,0.0,0.0,85,0.00,,,0.00,Wunderground v.1.15,2013-04-22 06:50:00,
2013-04-22 02:56:00,39.8,35.7,30.44,NNW,331,0.0,1.0,85,0.00,,,0.00,Wunderground v.1.15,2013-04-22 06:56:00,
2013-04-22 03:02:00,39.7,35.6,30.43,NNW,331,0.0,0.0,85,0.00,,,0.00,Wunderground v.1.15,2013-04-22 07:02:00,
2013-04-22 03:08:00,39.5,35.4,30.43,NNW,331,0.0,0.0,85,0.00,,,0.00,Wunderground v.1.15,2013-04-22 07:08:00,
2013-04-22 03:14:00,39.4,35.6,30.43,NNW,336,0.0,1.0,86,0.00,,,0.00,Wunderground v.1.15,2013-04-22 07:14:00,
2013-04-22 03:20:00,39.3,35.5,30.43,NNW,338,0.0,0.0,86,0.00,,,0.00,Wunderground v.1.15,2013-04-22 07:20:00,
2013-04-22 03:26:00,39.2,35.4,30.42,NNE,24,1.0,2.0,86,0.00,,,0.00,Wunderground v.1.15,2013-04-22 07:26:00,
2013-04-22 03:32:00,39.2,35.7,30.42,NW,324,1.0,1.0,87,0.00,,,0.00,Wunderground v.1.15,2013-04-22 07:32:00,
2013-04-22 03:38:00,39.1,35.6,30.42,West,278,1.0,1.0,87,0.00,,,0.00,Wunderground v.1.15,2013-04-22 07:38:00,
2013-04-22 03:44:00,39.1,35.6,30.42,NNW,338,1.0,1.0,87,0.00,,,0.00,Wunderground v.1.15,2013-04-22 07:44:00,
2013-04-22 03:50:00,39.0,35.5,30.41,NW,316,0.0,1.0,87,0.00,,,0.00,Wunderground v.1.15,2013-04-22 07:50:00,
2013-04-22 03:56:00,38.9,35.6,30.41,North,349,1.0,2.0,88,0.00,,,0.00,Wunderground v.1.15,2013-04-22 07:56:00,
2013-04-22 04:02:00,38.9,35.6,30.41,North,349,1.0,1.0,88,0.00,,,0.00,Wunderground v.1.15,2013-04-22 08:02:00,
2013-04-22 04:08:00,38.8,35.6,30.41,North,355,0.0,2.0,88,0.00,,,0.00,Wunderground v.1.15,2013-04-22 08:08:00,
2013-04-22 04:14:00,38.8,35.6,30.41,North,9,1.0,2.0,88,0.00,,,0.00,Wunderground v.1.15,2013-04-22 08:14:00,
2013-04-22 04:20:00,38.9,35.6,30.41,NE,43,1.0,1.0,88,0.00,,,0.00,Wunderground v.1.15,2013-04-22 08:20:00,
2013-04-22 04:26:00,38.9,35.6,30.40,NNW,327,1.0,2.0,88,0.00,,,0.00,Wunderground v.1.15,2013-04-22 08:26:00,
2013-04-22 04:32:00,38.8,35.6,30.40,NNW,327,1.0,1.0,88,0.00,,,0.00,Wunderground v.1.15,2013-04-22 08:32:00,
2013-04-22 04:38:00,38.8,35.6,30.40,North,355,0.0,2.0,88,0.00,,,0.00,Wunderground v.1.15,2013-04-22 08:38:00,
2013-04-22 04:44:00,38.8,35.6,30.40,NNE,21,1.0,2.0,88,0.00,,,0.00,Wunderground v.1.15,2013-04-22 08:44:00,
2013-04-22 04:50:00,38.8,35.8,30.40,NNW,333,1.0,1.0,89,0.00,,,0.00,Wunderground v.1.15,2013-04-22 08:50:00,
2013-04-22 04:56:00,38.8,35.6,30.40,NNW,346,1.0,1.0,88,0.00,,,0.00,Wunderground v.1.15,2013-04-22 08:56:00,
2013-04-22 05:02:00,38.7,35.7,30.40,North,9,0.0,1.0,89,0.00,,,0.00,Wunderground v.1.15,2013-04-22 09:02:00,
2013-04-22 05:08:00,38.6,35.6,30.41,North,360,1.0,1.0,89,0.00,,,0.00,Wunderground v.1.15,2013-04-22 09:08:00,
2013-04-22 05:14:00,38.5,35.5,30.41,North,360,0.0,1.0,89,0.00,,,0.00,Wunderground v.1.15,2013-04-22 09:14:00,
2013-04-22 05:20:00,38.4,35.4,30.41,North,360,0.0,0.0,89,0.00,,,0.00,Wunderground v.1.15,2013-04-22 09:20:00,
2013-04-22 05:26:00,38.2,35.2,30.41,NNE,14,0.0,1.0,89,0.00,,,0.00,Wunderground v.1.15,2013-04-22 09:26:00,
2013-04-22 05:32:00,38.1,35.1,30.41,NNE,13,1.0,1.0,89,0.00,,,0.00,Wunderground v.1.15,2013-04-22 09:32:00,
2013-04-22 05:38:00,38.0,35.0,30.41,NNW,328,0.0,4.0,89,0.00,,,0.00,Wunderground v.1.15,2013-04-22 09:38:00,
2013-04-22 05:44:00,37.9,34.9,30.41,NNW,328,0.0,0.0,89,0.00,,,0.00,Wunderground v.1.15,2013-04-22 09:44:00,
2013-04-22 05:50:00,37.8,35.1,30.41,NNW,328,0.0,0.0,90,0.00,,,0.00,Wunderground v.1.15,2013-04-22 09:50:00,
2013-04-22 05:56:00,37.6,34.9,30.41,NNW,328,0.0,0.0,90,0.00,,,0.00,Wunderground v.1.15,2013-04-22 09:56:00,
2013-04-22 06:02:00,37.5,34.8,30.42,NNW,328,0.0,1.0,90,0.00,,,0.00,Wunderground v.1.15,2013-04-22 10:02:00,
2013-04-22 06:08:00,37.3,34.6,30.42,NNW,328,0.0,1.0,90,0.00,,,0.00,Wunderground v.1.15,2013-04-22 10:08:00,
2013-04-22 06:14:00,37.1,34.7,30.42,NNW,328,0.0,0.0,91,0.00,,,0.00,Wunderground v.1.15,2013-04-22 10:14:00,
2013-04-22 06:20:00,36.8,34.4,30.42,NNW,328,0.0,0.0,91,0.00,,,0.00,Wunderground v.1.15,2013-04-22 10:20:00,
2013-04-22 06:26:00,36.6,34.2,30.42,NNW,328,0.0,0.0,91,0.00,,,0.00,Wunderground v.1.15,2013-04-22 10:26:00,
2013-04-22 06:32:00,36.4,34.3,30.42,NNW,328,0.0,0.0,92,0.00,,,0.00,Wunderground v.1.15,2013-04-22 10:32:00,
2013-04-22 06:38:00,36.1,34.0,30.42,SSE,167,0.0,0.0,92,0.00,,,0.00,Wunderground v.1.15,2013-04-22 10:38:00,
2013-04-22 06:44:00,35.9,33.8,30.42,NE,35,0.0,0.0,92,0.00,,,0.00,Wunderground v.1.15,2013-04-22 10:44:00,
2013-04-22 06:50:00,36.0,34.2,30.42,NE,35,0.0,0.0,93,0.00,,,0.00,Wunderground v.1.15,2013-04-22 10:50:00,
2013-04-22 06:56:00,36.0,34.2,30.42,NE,35,0.0,0.0,93,0.00,,,0.00,Wunderground v.1.15,2013-04-22 10:56:00,
2013-04-22 07:02:00,36.0,34.2,30.42,NE,35,0.0,0.0,93,0.00,,,0.00,Wunderground v.1.15,2013-04-22 11:02:00,
2013-04-22 07:08:00,36.0,34.2,30.43,NE,35,0.0,0.0,93,0.00,,,0.00,Wunderground v.1.15,2013-04-22 11:08:00,
2013-04-22 07:14:00,36.1,34.5,30.42,NNE,14,0.0,1.0,94,0.00,,,0.00,Wunderground v.1.15,2013-04-22 11:14:00,
2013-04-22 07:20:00,36.3,34.5,30.42,North,5,1.0,1.0,93,0.00,,,0.00,Wunderground v.1.15,2013-04-22 11:20:00,
2013-04-22 07:26:00,36.5,34.7,30.42,North,349,1.0,1.0,93,0.00,,,0.00,Wunderground v.1.15,2013-04-22 11:26:00,
2013-04-22 07:32:00,36.8,35.0,30.42,NNE,22,1.0,4.0,93,0.00,,,0.00,Wunderground v.1.15,2013-04-22 11:32:00,
2013-04-22 07:38:00,37.0,35.2,30.42,NNW,346,2.0,4.0,93,0.00,,,0.00,Wunderground v.1.15,2013-04-22 11:38:00,
2013-04-22 07:44:00,37.4,35.3,30.42,NNE,24,1.0,2.0,92,0.00,,,0.00,Wunderground v.1.15,2013-04-22 11:44:00,
2013-04-22 07:50:00,37.8,35.4,30.42,NNE,23,1.0,3.0,91,0.00,,,0.00,Wunderground v.1.15,2013-04-22 11:50:00,
2013-04-22 07:56:00,38.2,35.5,30.42,NNE,32,2.0,3.0,90,0.00,,,0.00,Wunderground v.1.15,2013-04-22 11:56:00,
2013-04-22 08:02:00,38.7,35.7,30.42,NNE,32,2.0,3.0,89,0.00,,,0.00,Wunderground v.1.15,2013-04-22 12:02:00,
2013-04-22 08:08:00,39.1,35.8,30.41,NNE,26,2.0,4.0,88,0.00,,,0.00,Wunderground v.1.15,2013-04-22 12:08:00,
2013-04-22 08:14:00,39.5,36.0,30.42,NNE,32,2.0,5.0,87,0.00,,,0.00,Wunderground v.1.15,2013-04-22 12:14:00,
2013-04-22 08:20:00,39.9,36.1,30.42,NNE,19,2.0,3.0,86,0.00,,,0.00,Wunderground v.1.15,2013-04-22 12:20:00,
2013-04-22 08:26:00,40.4,36.5,30.42,NW,320,2.0,3.0,86,0.00,,,0.00,Wunderground v.1.15,2013-04-22 12:26:00,
2013-04-22 08:32:00,40.8,36.3,30.42,NNE,21,2.0,2.0,84,0.00,,,0.00,Wunderground v.1.15,2013-04-22 12:32:00,
2013-04-22 08:38:00,41.3,36.5,30.42,NNW,347,3.0,6.0,83,0.00,,,0.00,Wunderground v.1.15,2013-04-22 12:38:00,
2013-04-22 08:44:00,41.7,36.6,30.42,NE,42,3.0,8.0,82,0.00,,,0.00,Wunderground v.1.15,2013-04-22 12:44:00,
2013-04-22 08:50:00,42.1,36.7,30.42,NNE,25,3.0,3.0,81,0.00,,,0.00,Wunderground v.1.15,2013-04-22 12:50:00,
2013-04-22 08:56:00,42.6,37.2,30.42,WNW,286,2.0,3.0,81,0.00,,,0.00,Wunderground v.1.15,2013-04-22 12:56:00,
2013-04-22 09:02:00,43.1,37.3,30.42,NW,304,2.0,6.0,80,0.00,,,0.00,Wunderground v.1.15,2013-04-22 13:02:00,
2013-04-22 09:08:00,43.4,37.6,30.42,North,355,3.0,6.0,80,0.00,,,0.00,Wunderground v.1.15,2013-04-22 13:08:00,
2013-04-22 09:14:00,44.0,38.5,30.42,NNE,21,2.0,3.0,81,0.00,,,0.00,Wunderground v.1.15,2013-04-22 13:14:00,
2013-04-22 09:20:00,44.5,38.7,30.42,NE,46,2.0,2.0,80,0.00,,,0.00,Wunderground v.1.15,2013-04-22 13:20:00,
2013-04-22 09:26:00,45.0,39.2,30.42,WSW,251,2.0,6.0,80,0.00,,,0.00,Wunderground v.1.15,2013-04-22 13:26:00,
2013-04-22 09:32:00,45.6,39.5,30.42,NNE,33,2.0,2.0,79,0.00,,,0.00,Wunderground v.1.15,2013-04-22 13:32:00,
2013-04-22 09:38:00,46.0,39.5,30.42,North,9,2.0,3.0,78,0.00,,,0.00,Wunderground v.1.15,2013-04-22 13:38:00,
2013-04-22 09:44:00,46.3,39.8,30.42,NNW,342,2.0,5.0,78,0.00,,,0.00,Wunderground v.1.15,2013-04-22 13:44:00,
2013-04-22 09:50:00,46.9,40.4,30.42,NNE,17,2.0,2.0,78,0.00,,,0.00,Wunderground v.1.15,2013-04-22 13:50:00,
2013-04-22 09:56:00,47.5,41.0,30.41,North,360,2.0,3.0,78,0.00,,,0.00,Wunderground v.1.15,2013-04-22 13:56:00,
2013-04-22 10:02:00,47.9,40.7,30.41,NNE,21,2.0,4.0,76,0.00,,,0.00,Wunderground v.1.15,2013-04-22 14:02:00,
2013-04-22 10:08:00,48.5,41.3,30.41,East,95,2.0,4.0,76,0.00,,,0.00,Wunderground v.1.15,2013-04-22 14:08:00,
2013-04-22 10:14:00,48.5,40.6,30.42,NE,40,2.0,6.0,74,0.00,,,0.00,Wunderground v.1.15,2013-04-22 14:14:00,
2013-04-22 10:20:00,48.4,40.5,30.41,NNE,24,3.0,3.0,74,0.00,,,0.00,Wunderground v.1.15,2013-04-22 14:20:00,
2013-04-22 10:26:00,48.6,41.0,30.41,North,355,2.0,3.0,75,0.00,,,0.00,Wunderground v.1.15,2013-04-22 14:26:00,
2013-04-22 10:32:00,49.1,41.2,30.42,NNE,13,2.0,6.0,74,0.00,,,0.00,Wunderground v.1.15,2013-04-22 14:32:00,
2013-04-22 10:38:00,49.1,40.5,30.42,NE,38,3.0,6.0,72,0.00,,,0.00,Wunderground v.1.15,2013-04-22 14:38:00,
2013-04-22 10:44:00,49.0,40.7,30.42,North,355,3.0,4.0,73,0.00,,,0.00,Wunderground v.1.15,2013-04-22 14:44:00,
2013-04-22 10:50:00,49.3,41.0,30.42,NNW,331,2.0,2.0,73,0.00,,,0.00,Wunderground v.1.15,2013-04-22 14:50:00,
2013-04-22 10:56:00,49.4,41.1,30.42,North,350,2.0,4.0,73,0.00,,,0.00,Wunderground v.1.15,2013-04-22 14:56:00,
2013-04-22 11:02:00,50.0,41.3,30.42,North,9,2.0,2.0,72,0.00,,,0.00,Wunderground v.1.15,2013-04-22 15:02:00,
2013-04-22 11:08:00,51.2,42.5,30.41,NNE,12,2.0,2.0,72,0.00,,,0.00,Wunderground v.1.15,2013-04-22 15:08:00,
2013-04-22 11:14:00,51.6,41.0,30.41,WNW,302,2.0,3.0,67,0.00,,,0.00,Wunderground v.1.15,2013-04-22 15:14:00,
2013-04-22 11:20:00,51.4,41.6,30.40,East,87,1.0,2.0,69,0.00,,,0.00,Wunderground v.1.15,2013-04-22 15:20:00,
2013-04-22 11:26:00,51.7,42.6,30.40,NNE,26,1.0,3.0,71,0.00,,,0.00,Wunderground v.1.15,2013-04-22 15:26:00,
2013-04-22 11:32:00,51.6,41.0,30.41,NNE,29,2.0,6.0,67,0.00,,,0.00,Wunderground v.1.15,2013-04-22 15:32:00,
2013-04-22 11:38:00,51.1,40.5,30.41,NNE,22,3.0,6.0,67,0.00,,,0.00,Wunderground v.1.15,2013-04-22 15:38:00,
2013-04-22 11:44:00,51.4,41.9,30.41,NNE,13,3.0,3.0,70,0.00,,,0.00,Wunderground v.1.15,2013-04-22 15:44:00,
2013-04-22 11:50:00,51.7,41.5,30.41,North,360,3.0,3.0,68,0.00,,,0.00,Wunderground v.1.15,2013-04-22 15:50:00,
2013-04-22 11:56:00,52.4,42.5,30.41,ESE,117,2.0,5.0,69,0.00,,,0.00,Wunderground v.1.15,2013-04-22 15:56:00,
2013-04-22 12:02:00,52.6,41.6,30.41,NNW,348,2.0,5.0,66,0.00,,,0.00,Wunderground v.1.15,2013-04-22 16:02:00,
2013-04-22 12:08:00,52.7,41.7,30.40,North,5,2.0,5.0,66,0.00,,,0.00,Wunderground v.1.15,2013-04-22 16:08:00,
2013-04-22 12:14:00,53.4,42.3,30.39,NNW,348,3.0,4.0,66,0.00,,,0.00,Wunderground v.1.15,2013-04-22 16:14:00,
2013-04-22 12:20:00,54.1,42.2,30.38,SSW,209,2.0,2.0,64,0.00,,,0.00,Wunderground v.1.15,2013-04-22 16:20:00,
2013-04-22 12:26:00,54.7,42.3,30.39,North,5,2.0,6.0,63,0.00,,,0.00,Wunderground v.1.15,2013-04-22 16:26:00,
2013-04-22 12:32:00,54.8,42.9,30.38,NNE,26,3.0,3.0,64,0.00,,,0.00,Wunderground v.1.15,2013-04-22 16:32:00,
2013-04-22 12:38:00,54.8,41.6,30.38,NNE,22,3.0,3.0,61,0.00,,,0.00,Wunderground v.1.15,2013-04-22 16:38:00,
2013-04-22 12:44:00,54.7,41.9,30.38,NNE,24,3.0,4.0,62,0.00,,,0.00,Wunderground v.1.15,2013-04-22 16:44:00,
2013-04-22 12:50:00,55.1,42.3,30.37,NE,53,3.0,3.0,62,0.00,,,0.00,Wunderground v.1.15,2013-04-22 16:50:00,
2013-04-22 12:56:00,55.7,42.5,30.36,NE,37,2.0,4.0,61,0.00,,,0.00,Wunderground v.1.15,2013-04-22 16:56:00,
2013-04-22 13:02:00,56.8,43.5,30.36,North,5,2.0,2.0,61,0.00,,,0.00,Wunderground v.1.15,2013-04-22 17:02:00,
2013-04-22 13:08:00,57.2,42.1,30.36,ENE,60,2.0,5.0,57,0.00,,,0.00,Wunderground v.1.15,2013-04-22 17:08:00,
2013-04-22 13:14:00,57.3,41.7,30.36,North,350,2.0,4.0,56,0.00,,,0.00,Wunderground v.1.15,2013-04-22 17:14:00,
2013-04-22 13:20:00,57.3,42.2,30.35,NE,56,2.0,2.0,57,0.00,,,0.00,Wunderground v.1.15,2013-04-22 17:20:00,
2013-04-22 13:26:00,57.8,42.7,30.35,WNW,286,2.0,2.0,57,0.00,,,0.00,Wunderground v.1.15,2013-04-22 17:26:00,
2013-04-22 13:32:00,58.1,42.0,30.34,SSE,148,1.0,3.0,55,0.00,,,0.00,Wunderground v.1.15,2013-04-22 17:32:00,
2013-04-22 13:38:00,58.3,43.1,30.34,East,84,2.0,3.0,57,0.00,,,0.00,Wunderground v.1.15,2013-04-22 17:38:00,
2013-04-22 13:44:00,58.4,44.1,30.34,NE,51,2.0,3.0,59,0.00,,,0.00,Wunderground v.1.15,2013-04-22 17:44:00,
2013-04-22 13:50:00,58.9,41.3,30.33,NNE,15,3.0,3.0,52,0.00,,,0.00,Wunderground v.1.15,2013-04-22 17:50:00,
2013-04-22 13:56:00,59.0,41.9,30.33,North,5,3.0,4.0,53,0.00,,,0.00,Wunderground v.1.15,2013-04-22 17:56:00,
2013-04-22 14:02:00,59.7,45.8,30.33,East,86,2.0,3.0,60,0.00,,,0.00,Wunderground v.1.15,2013-04-22 18:02:00,
2013-04-22 14:08:00,59.9,42.2,30.33,NW,317,2.0,4.0,52,0.00,,,0.00,Wunderground v.1.15,2013-04-22 18:08:00,
2013-04-22 14:14:00,59.7,41.5,30.32,North,5,3.0,4.0,51,0.00,,,0.00,Wunderground v.1.15,2013-04-22 18:14:00,
2013-04-22 14:20:00,59.5,43.3,30.33,NNE,17,3.0,8.0,55,0.00,,,0.00,Wunderground v.1.15,2013-04-22 18:20:00,
2013-04-22 14:26:00,59.6,41.4,30.32,NE,36,3.0,8.0,51,0.00,,,0.00,Wunderground v.1.15,2013-04-22 18:26:00,
2013-04-22 14:32:00,60.1,43.9,30.31,NE,46,2.0,6.0,55,0.00,,,0.00,Wunderground v.1.15,2013-04-22 18:32:00,
2013-04-22 14:38:00,60.0,41.8,30.31,NE,36,3.0,6.0,51,0.00,,,0.00,Wunderground v.1.15,2013-04-22 18:38:00,
2013-04-22 14:44:00,60.3,42.6,30.31,NE,52,3.0,3.0,52,0.00,,,0.00,Wunderground v.1.15,2013-04-22 18:44:00,
2013-04-22 14:50:00,60.4,42.7,30.31,WSW,240,3.0,3.0,52,0.00,,,0.00,Wunderground v.1.15,2013-04-22 18:50:00,
2013-04-22 14:56:00,60.8,44.0,30.30,NE,46,2.0,3.0,54,0.00,,,0.00,Wunderground v.1.15,2013-04-22 18:56:00,
2013-04-22 15:02:00,61.0,42.7,30.30,NE,34,3.0,5.0,51,0.00,,,0.00,Wunderground v.1.15,2013-04-22 19:02:00,
2013-04-22 15:08:00,61.1,42.3,30.30,NNE,26,3.0,6.0,50,0.00,,,0.00,Wunderground v.1.15,2013-04-22 19:08:00,
2013-04-22 15:14:00,60.6,42.4,30.29,NW,317,2.0,3.0,51,0.00,,,0.00,Wunderground v.1.15,2013-04-22 19:14:00,
2013-04-22 15:20:00,60.5,42.3,30.29,North,5,2.0,2.0,51,0.00,,,0.00,Wunderground v.1.15,2013-04-22 19:20:00,
2013-04-22 15:26:00,61.0,44.2,30.29,NW,320,2.0,4.0,54,0.00,,,0.00,Wunderground v.1.15,2013-04-22 19:26:00,
2013-04-22 15:32:00,61.1,42.8,30.29,NNE,24,2.0,6.0,51,0.00,,,0.00,Wunderground v.1.15,2013-04-22 19:32:00,
2013-04-22 15:38:00,60.7,43.5,30.28,SSE,155,3.0,6.0,53,0.00,,,0.00,Wunderground v.1.15,2013-04-22 19:38:00,
2013-04-22 15:44:00,60.6,43.4,30.28,NW,321,2.0,3.0,53,0.00,,,0.00,Wunderground v.1.15,2013-04-22 19:44:00,
2013-04-22 15:50:00,60.6,42.4,30.28,North,5,2.0,7.0,51,0.00,,,0.00,Wunderground v.1.15,2013-04-22 19:50:00,
2013-04-22 15:56:00,60.5,41.8,30.28,NNE,30,3.0,7.0,50,0.00,,,0.00,Wunderground v.1.15,2013-04-22 19:56:00,
2013-04-22 16:02:00,60.5,42.8,30.28,ENE,59,3.0,3.0,52,0.00,,,0.00,Wunderground v.1.15,2013-04-22 20:02:00,
2013-04-22 16:08:00,60.2,42.5,30.28,WSW,252,2.0,3.0,52,0.00,,,0.00,Wunderground v.1.15,2013-04-22 20:08:00,
2013-04-22 16:14:00,60.0,42.3,30.27,SW,236,2.0,2.0,52,0.00,,,0.00,Wunderground v.1.15,2013-04-22 20:14:00,
2013-04-22 16:20:00,59.7,42.0,30.27,NE,40,2.0,2.0,52,0.00,,,0.00,Wunderground v.1.15,2013-04-22 20:20:00,
2013-04-22 16:26:00,59.7,43.0,30.27,NNE,31,1.0,2.0,54,0.00,,,0.00,Wunderground v.1.15,2013-04-22 20:26:00,
2013-04-22 16:32:00,59.7,43.5,30.27,NE,40,1.0,2.0,55,0.00,,,0.00,Wunderground v.1.15,2013-04-22 20:32:00,
2013-04-22 16:38:00,59.6,43.9,30.27,ENE,64,1.0,2.0,56,0.00,,,0.00,Wunderground v.1.15,2013-04-22 20:38:00,
2013-04-22 16:44:00,59.3,42.6,30.27,NE,47,2.0,2.0,54,0.00,,,0.00,Wunderground v.1.15,2013-04-22 20:44:00,
2013-04-22 16:50:00,59.1,42.5,30.27,NNE,22,2.0,2.0,54,0.00,,,0.00,Wunderground v.1.15,2013-04-22 20:50:00,
2013-04-22 16:56:00,59.3,43.6,30.26,North,350,2.0,2.0,56,0.00,,,0.00,Wunderground v.1.15,2013-04-22 20:56:00,
2013-04-22 17:02:00,59.6,43.4,30.26,ENE,69,2.0,2.0,55,0.00,,,0.00,Wunderground v.1.15,2013-04-22 21:02:00,
2013-04-22 17:08:00,59.6,43.4,30.26,North,351,4.0,6.0,55,0.00,,,0.00,Wunderground v.1.15,2013-04-22 21:08:00,
2013-04-22 17:14:00,59.5,44.2,30.26,NE,34,3.0,5.0,57,0.00,,,0.00,Wunderground v.1.15,2013-04-22 21:14:00,
2013-04-22 17:20:00,59.2,44.0,30.26,NNE,23,3.0,3.0,57,0.00,,,0.00,Wunderground v.1.15,2013-04-22 21:20:00,
2013-04-22 17:26:00,58.9,43.7,30.26,North,355,3.0,4.0,57,0.00,,,0.00,Wunderground v.1.15,2013-04-22 21:26:00,
2013-04-22 17:32:00,58.6,44.3,30.26,North,11,3.0,3.0,59,0.00,,,0.00,Wunderground v.1.15,2013-04-22 21:32:00,
2013-04-22 17:38:00,58.6,44.3,30.26,NNW,328,2.0,3.0,59,0.00,,,0.00,Wunderground v.1.15,2013-04-22 21:38:00,
2013-04-22 17:44:00,58.4,44.1,30.26,NNE,13,2.0,3.0,59,0.00,,,0.00,Wunderground v.1.15,2013-04-22 21:44:00,
2013-04-22 17:50:00,58.2,44.8,30.26,South,185,2.0,2.0,61,0.00,,,0.00,Wunderground v.1.15,2013-04-22 21:50:00,
2013-04-22 17:56:00,58.0,44.6,30.26,East,87,2.0,3.0,61,0.00,,,0.00,Wunderground v.1.15,2013-04-22 21:56:00,
2013-04-22 18:02:00,57.9,44.5,30.26,NNW,348,2.0,5.0,61,0.00,,,0.00,Wunderground v.1.15,2013-04-22 22:02:00,
2013-04-22 18:08:00,57.8,44.9,30.26,NNW,341,2.0,5.0,62,0.00,,,0.00,Wunderground v.1.15,2013-04-22 22:08:00,
2013-04-22 18:14:00,57.7,45.2,30.26,NNE,24,2.0,3.0,63,0.00,,,0.00,Wunderground v.1.15,2013-04-22 22:14:00,
2013-04-22 18:20:00,57.5,45.0,30.26,WNW,292,3.0,3.0,63,0.00,,,0.00,Wunderground v.1.15,2013-04-22 22:20:00,
2013-04-22 18:26:00,57.4,44.9,30.26,ENE,61,2.0,6.0,63,0.00,,,0.00,Wunderground v.1.15,2013-04-22 22:26:00,
2013-04-22 18:32:00,57.2,44.7,30.26,NNE,22,2.0,2.0,63,0.00,,,0.00,Wunderground v.1.15,2013-04-22 22:32:00,
2013-04-22 18:38:00,57.0,44.5,30.26,NNE,30,2.0,2.0,63,0.00,,,0.00,Wunderground v.1.15,2013-04-22 22:38:00,
2013-04-22 18:44:00,56.8,44.7,30.26,NNW,334,2.0,3.0,64,0.00,,,0.00,Wunderground v.1.15,2013-04-22 22:44:00,
2013-04-22 18:50:00,56.7,45.1,30.25,North,349,2.0,2.0,65,0.00,,,0.00,Wunderground v.1.15,2013-04-22 22:50:00,
2013-04-22 18:56:00,56.6,45.4,30.25,NW,305,1.0,2.0,66,0.00,,,0.00,Wunderground v.1.15,2013-04-22 22:56:00,
2013-04-22 19:02:00,56.5,45.3,30.26,NNW,337,1.0,2.0,66,0.00,,,0.00,Wunderground v.1.15,2013-04-22 23:02:00,
2013-04-22 19:08:00,56.3,45.1,30.26,NNE,13,1.0,2.0,66,0.00,,,0.00,Wunderground v.1.15,2013-04-22 23:08:00,
2013-04-22 19:14:00,56.2,45.8,30.26,NE,34,1.0,1.0,68,0.00,,,0.00,Wunderground v.1.15,2013-04-22 23:14:00,
2013-04-22 19:20:00,56.0,45.2,30.26,NNE,24,1.0,1.0,67,0.00,,,0.00,Wunderground v.1.15,2013-04-22 23:20:00,
2013-04-22 19:26:00,55.8,45.0,30.26,NNE,21,1.0,2.0,67,0.00,,,0.00,Wunderground v.1.15,2013-04-22 23:26:00,
2013-04-22 19:32:00,55.7,45.7,30.26,NNE,19,1.0,1.0,69,0.00,,,0.00,Wunderground v.1.15,2013-04-22 23:32:00,
2013-04-22 19:38:00,55.5,45.5,30.26,NNE,13,1.0,1.0,69,0.00,,,0.00,Wunderground v.1.15,2013-04-22 23:38:00,
2013-04-22 19:44:00,55.3,45.3,30.26,NW,322,1.0,5.0,69,0.00,,,0.00,Wunderground v.1.15,2013-04-22 23:44:00,
2013-04-22 19:50:00,55.1,44.7,30.26,NNE,22,2.0,2.0,68,0.00,,,0.00,Wunderground v.1.15,2013-04-22 23:50:00,
2013-04-22 19:56:00,55.0,45.0,30.26,North,355,1.0,2.0,69,0.00,,,0.00,Wunderground v.1.15,2013-04-22 23:56:00,
2013-04-22 20:02:00,54.8,44.8,30.27,NNE,22,1.0,4.0,69,0.00,,,0.00,Wunderground v.1.15,2013-04-23 00:02:00,
2013-04-22 20:08:00,54.7,44.7,30.27,NNW,330,1.0,4.0,69,0.00,,,0.00,Wunderground v.1.15,2013-04-23 00:08:00,
2013-04-22 20:14:00,54.6,45.0,30.27,North,10,1.0,2.0,70,0.00,,,0.00,Wunderground v.1.15,2013-04-23 00:14:00,
2013-04-22 20:20:00,54.5,44.9,30.27,NNW,342,1.0,1.0,70,0.00,,,0.00,Wunderground v.1.15,2013-04-23 00:20:00,
2013-04-22 20:26:00,54.4,44.8,30.27,NNW,341,1.0,1.0,70,0.00,,,0.00,Wunderground v.1.15,2013-04-23 00:26:00,
2013-04-22 20:32:00,54.4,45.2,30.27,NNE,15,0.0,0.0,71,0.00,,,0.00,Wunderground v.1.15,2013-04-23 00:32:00,
2013-04-22 20:38:00,54.2,45.0,30.27,NW,323,1.0,1.0,71,0.00,,,0.00,Wunderground v.1.15,2013-04-23 00:38:00,
2013-04-22 20:44:00,54.1,44.5,30.27,East,88,1.0,4.0,70,0.00,,,0.00,Wunderground v.1.15,2013-04-23 00:44:00,
2013-04-22 20:50:00,54.0,44.8,30.28,NNW,346,1.0,1.0,71,0.00,,,0.00,Wunderground v.1.15,2013-04-23 00:50:00,
2013-04-22 20:56:00,53.9,44.3,30.28,East,82,1.0,2.0,70,0.00,,,0.00,Wunderground v.1.15,2013-04-23 00:56:00,
2013-04-22 21:02:00,53.7,43.8,30.28,North,10,3.0,5.0,69,0.00,,,0.00,Wunderground v.1.15,2013-04-23 01:02:00,
2013-04-22 21:08:00,53.7,44.5,30.28,NNW,328,2.0,5.0,71,0.00,,,0.00,Wunderground v.1.15,2013-04-23 01:08:00,
2013-04-22 21:14:00,53.6,44.4,30.28,ESE,119,1.0,2.0,71,0.00,,,0.00,Wunderground v.1.15,2013-04-23 01:14:00,
2013-04-22 21:20:00,53.5,44.7,30.28,NNE,20,1.0,1.0,72,0.00,,,0.00,Wunderground v.1.15,2013-04-23 01:20:00,
2013-04-22 21:26:00,53.4,44.6,30.28,NNE,13,1.0,3.0,72,0.00,,,0.00,Wunderground v.1.15,2013-04-23 01:26:00,
2013-04-22 21:32:00,53.3,44.5,30.28,North,5,1.0,1.0,72,0.00,,,0.00,Wunderground v.1.15,2013-04-23 01:32:00,
2013-04-22 21:38:00,53.2,44.8,30.28,North,5,2.0,5.0,73,0.00,,,0.00,Wunderground v.1.15,2013-04-23 01:38:00,
2013-04-22 21:44:00,52.8,45.1,30.29,WNW,300,2.0,3.0,75,0.00,,,0.00,Wunderground v.1.15,2013-04-23 01:44:00,
2013-04-22 21:50:00,52.6,45.2,30.29,WNW,300,2.0,4.0,76,0.00,,,0.00,Wunderground v.1.15,2013-04-23 01:50:00,
2013-04-22 21:56:00,52.1,45.4,30.29,North,11,3.0,4.0,78,0.00,,,0.00,Wunderground v.1.15,2013-04-23 01:56:00,
2013-04-22 22:02:00,51.9,45.3,30.29,ENE,71,2.0,4.0,78,0.00,,,0.00,Wunderground v.1.15,2013-04-23 02:02:00,
2013-04-22 22:08:00,51.7,45.7,30.29,West,273,2.0,4.0,80,0.00,,,0.00,Wunderground v.1.15,2013-04-23 02:08:00,
2013-04-22 22:14:00,51.5,45.9,30.29,North,5,2.0,2.0,81,0.00,,,0.00,Wunderground v.1.15,2013-04-23 02:14:00,
2013-04-22 22:20:00,51.1,46.4,30.29,NNW,339,1.0,6.0,84,0.00,,,0.00,Wunderground v.1.15,2013-04-23 02:20:00,
2013-04-22 22:26:00,50.7,46.4,30.29,North,355,1.0,6.0,85,0.00,,,0.00,Wunderground v.1.15,2013-04-23 02:26:00,
2013-04-22 22:32:00,50.4,46.4,30.28,North,360,1.0,1.0,86,0.00,,,0.00,Wunderground v.1.15,2013-04-23 02:32:00,
2013-04-22 22:38:00,50.1,46.4,30.28,North,11,1.0,3.0,87,0.00,,,0.00,Wunderground v.1.15,2013-04-23 02:38:00,
2013-04-22 22:44:00,50.0,46.6,30.28,NNE,15,1.0,1.0,88,0.00,,,0.01,Wunderground v.1.15,2013-04-23 02:44:00,
2013-04-22 22:50:00,49.8,46.4,30.28,North,11,1.0,3.0,88,0.00,,,0.01,Wunderground v.1.15,2013-04-23 02:50:00,
2013-04-22 22:56:00,49.6,46.5,30.27,NNE,26,1.0,4.0,89,0.00,,,0.01,Wunderground v.1.15,2013-04-23 02:56:00,
2013-04-22 23:02:00,49.4,46.6,30.27,NE,41,2.0,2.0,90,0.00,,,0.01,Wunderground v.1.15,2013-04-23 03:02:00,
2013-04-22 23:08:00,49.3,46.5,30.27,North,355,2.0,2.0,90,0.00,,,0.02,Wunderground v.1.15,2013-04-23 03:08:00,
2013-04-22 23:14:00,49.2,46.4,30.27,NNE,18,1.0,5.0,90,0.00,,,0.02,Wunderground v.1.15,2013-04-23 03:14:00,
2013-04-22 23:20:00,49.1,46.3,30.26,NNE,16,2.0,2.0,90,0.00,,,0.02,Wunderground v.1.15,2013-04-23 03:20:00,
2013-04-22 23:26:00,49.0,46.2,30.26,NE,38,2.0,3.0,90,0.00,,,0.02,Wunderground v.1.15,2013-04-23 03:26:00,
2013-04-22 23:32:00,49.0,46.5,30.26,NNW,342,1.0,2.0,91,0.00,,,0.02,Wunderground v.1.15,2013-04-23 03:32:00,
2013-04-22 23:38:00,49.0,46.2,30.26,NNE,23,1.0,6.0,90,0.00,,,0.02,Wunderground v.1.15,2013-04-23 03:38:00,
2013-04-22 23:44:00,49.0,46.2,30.26,NNE,22,2.0,2.0,90,0.00,,,0.02,Wunderground v.1.15,2013-04-23 03:44:00,
2013-04-22 23:50:00,49.0,46.2,30.26,NNE,30,1.0,1.0,90,0.00,,,0.02,Wunderground v.1.15,2013-04-23 03:50:00,
2013-04-22 23:56:00,49.0,46.2,30.26,NNE,18,1.0,1.0,90,0.00,,,0.02,Wunderground v.1.15,2013-04-23 03:56:00,